Weather in Kinelakhta

Russia / Republic of Karelia     61°23′15″N   32°35′30″E
temp.,
°C
wind,
m/s
gust,
m/s
humid.,
%
clouds,
%
prec.,
mm/h
press.,
hPa
HPBL,
m
4 march, thu
thu400:00−4nw4128957 0.1 997549
03:00−6nw4119354 0.1 999373
06:00−8nnw269664 0.0 999152
09:00−7nnw259679 0.1 1000224
12:00−4nw358782 0.0 1001548
15:00−3nw368290 0.1 1001883
18:00−6nw279093 0.3 1002213
21:00−9nw279476 0.3 1002188
5 march, fri
fri500:00−11nw249655 0.0 100387
03:00−10nnw279656 0.1 1005244
06:00−11nne129699 0.1 100625
09:00−12nnw129569 0.1 100856
12:00−7nw367964 0.0 1010561
15:00−6n348082 0.1 1011870
18:00−9nw228948 0.0 101221
21:00−11nw229451 0.0 101421
6 march, sat
sat600:00−13nnw239531 0.0 101535
03:00−14nw129515 0.0 101620
06:00−15wsw12970 0.0 101520
09:00−13sw259714 0.0 1014131
12:00−6ssw598790 0.0 1010709
15:00−5ssw6128595 0.1 10051024
18:00−5ssw81593100 2.6 9981236
21:00−3ssw61296100 7.3 991948
7 march, sun
sun700:00−2wsw51296100 3.2 988954
03:00−8wnw31078100 3.5 988570
06:00−16sw128233 0.0 98920
09:00−11s129550 0.1 989124
12:00−8ssw128195 0.1 989691
15:00−7ne117297 0.2 991902
18:00−9nne379059 0.2 993226
21:00−11nnw3118976 0.2 995426
8 march, mon
mon800:00−11n51288100 0.1 998797
03:00−14n61387100 0.2 1001718
06:00−15n51389100 0.1 1003660
09:00−17n51388100 0.1 1007603
12:00−15n51187100 0.0 1010590
15:00−12n51085100 0.0 1013686
18:00−14n41189100 0.0 1015570
21:00−17nne4119074 0.0 1018421